Location: Deer Path Park
(40.5570°N, 74.8450°W)
Time: 01:20:49
(UTC-05:00)

Iridium 49 - Visible Passes

Search period start: 30 January 2015 00:00
Search period end: 09 February 2015 00:00
Orbit: 776 x 779 km, 86.4° (Epoch: 29 January)

Date Brightness Start Highest point End Pass type
(mag) Time Alt. Az. Time Alt. Az. Time Alt. Az.
03 Feb 8.2 20:02:14 10° N 20:03:08 15° N 20:03:08 15° N visible
04 Feb 7.5 19:28:45 10° N 19:30:45 23° NNE 19:30:45 23° NNE visible
04 Feb 9.0 21:11:08 10° NW 21:11:19 10° NW 21:11:19 10° NW visible
05 Feb 7.0 18:55:34 10° NNE 18:58:45 28° NE 18:58:45 28° NE visible
05 Feb 8.0 20:36:28 10° NNW 20:39:21 24° NW 20:39:21 24° NW visible
06 Feb 7.3 18:22:53 10° NNE 18:26:21 18° ENE 18:27:48 17° E visible
06 Feb 6.8 20:02:26 10° NNW 20:07:30 50° W 20:08:34 43° SW visible
07 Feb 5.9 19:28:46 10° N 19:34:01 87° E 19:39:14 10° S visible
07 Feb 9.1 21:13:35 10° WNW 21:14:04 10° WNW 21:14:09 10° WNW visible
08 Feb 6.2 18:55:23 10° N 19:00:24 47° E 19:05:26 10° SSE visible
08 Feb 8.4 20:37:06 10° NW 20:40:49 19° W 20:44:21 10° SW visible
